Location: Arroyo de San Miguel
(40.9167°N, 4.6667°W)
Time: 01:35:15
(UTC+00:00)

Cosmos 1697 Rocket - Pass Details

Date: 19 May 2025
Orbit: 830 x 844 km, 71.0° (Epoch: 24 June)

Event Time Altitude Azimuth Distance (km) Brightness Sun altitude
Rises 21:18:21 0° 340° (NNW) 3,404 7.1 -16.6°
Reaches altitude 10° 21:20:52 10° 345° (NNW) 2,467 6.1 -16.9°
Maximum altitude 21:26:25 54° 62° (ENE) 1,015 3.0 -17.6°
Enters shadow 21:29:02 30° 126° (SE) 1,470 3.4 -17.9°
